Year,Month,Day,Hour,Minute,Value (Times are PST for barometer in hPa)
2014,02,12,00,00,994.31
2014,02,12,00,01,994.31
2014,02,12,00,02,994.31
2014,02,12,00,03,994.31
2014,02,12,00,04,994.31
2014,02,12,00,05,994.31
2014,02,12,00,06,994.31
2014,02,12,00,07,994.31
2014,02,12,00,08,994.31
2014,02,12,00,09,994.31
2014,02,12,00,10,994.31
2014,02,12,00,11,994.31
2014,02,12,00,12,994.31
2014,02,12,00,13,994.31
2014,02,12,00,14,994.18
2014,02,12,00,15,993.43
2014,02,12,00,16,993.43
2014,02,12,00,17,993.43
2014,02,12,00,18,993.43
2014,02,12,00,19,993.43
2014,02,12,00,20,993.43
2014,02,12,00,21,993.43
2014,02,12,00,22,993.43
2014,02,12,00,23,993.43
2014,02,12,00,24,993.43
2014,02,12,00,25,993.43
2014,02,12,00,26,993.43
2014,02,12,00,27,993.43
2014,02,12,00,28,993.43
2014,02,12,00,29,993.31
2014,02,12,00,30,992.65
2014,02,12,00,31,992.65
2014,02,12,00,32,992.65
2014,02,12,00,33,992.65
2014,02,12,00,34,992.65
2014,02,12,00,35,992.65
2014,02,12,00,36,992.65
2014,02,12,00,37,992.65
2014,02,12,00,38,992.65
2014,02,12,00,39,992.65
2014,02,12,00,40,992.65
2014,02,12,00,41,992.65
2014,02,12,00,42,992.65
2014,02,12,00,43,992.65
2014,02,12,00,44,992.52
2014,02,12,00,45,991.81
2014,02,12,00,46,991.81
2014,02,12,00,47,991.81
2014,02,12,00,48,991.81
2014,02,12,00,49,991.81
2014,02,12,00,50,991.81
2014,02,12,00,51,991.81
2014,02,12,00,52,991.81
2014,02,12,00,53,991.81
2014,02,12,00,54,991.81
2014,02,12,00,55,991.81
2014,02,12,00,56,991.81
2014,02,12,00,57,991.81
2014,02,12,00,58,991.81
2014,02,12,00,59,991.74
2014,02,12,01,00,991.33
2014,02,12,01,01,991.33
2014,02,12,01,02,991.33
2014,02,12,01,03,991.33
2014,02,12,01,04,991.33
2014,02,12,01,05,991.33
2014,02,12,01,06,991.33
2014,02,12,01,07,991.33
2014,02,12,01,08,991.33
2014,02,12,01,09,991.33
2014,02,12,01,10,991.33
2014,02,12,01,11,991.33
2014,02,12,01,12,991.33
2014,02,12,01,13,991.33
2014,02,12,01,14,991.32
2014,02,12,01,15,991.26
2014,02,12,01,16,991.26
2014,02,12,01,17,991.26
2014,02,12,01,18,991.26
2014,02,12,01,19,991.26
2014,02,12,01,20,991.26
2014,02,12,01,21,991.26
2014,02,12,01,22,991.26
2014,02,12,01,23,991.26
2014,02,12,01,24,991.26
2014,02,12,01,25,991.26
2014,02,12,01,26,991.26
2014,02,12,01,27,991.26
2014,02,12,01,28,991.26
2014,02,12,01,29,991.22
2014,02,12,01,30,990.96
2014,02,12,01,31,990.96
2014,02,12,01,32,990.96
2014,02,12,01,33,990.96
2014,02,12,01,34,990.96
2014,02,12,01,35,990.96
2014,02,12,01,36,990.96
2014,02,12,01,37,990.96
2014,02,12,01,38,990.96
2014,02,12,01,39,990.96
2014,02,12,01,40,990.96
2014,02,12,01,41,990.96
2014,02,12,01,42,990.96
2014,02,12,01,43,990.96
2014,02,12,01,44,990.92
2014,02,12,01,45,990.72
2014,02,12,01,46,990.72
2014,02,12,01,47,990.72
2014,02,12,01,48,990.72
2014,02,12,01,49,990.72
2014,02,12,01,50,990.72
2014,02,12,01,51,990.72
2014,02,12,01,52,990.72
2014,02,12,01,53,990.72
2014,02,12,01,54,990.72
2014,02,12,01,55,990.72
2014,02,12,01,56,990.72
2014,02,12,01,57,990.72
2014,02,12,01,58,990.72
2014,02,12,01,59,990.68
2014,02,12,02,00,990.52
2014,02,12,02,01,990.52
2014,02,12,02,02,990.52
2014,02,12,02,03,990.52
2014,02,12,02,04,990.52
2014,02,12,02,05,990.52
2014,02,12,02,06,990.52
2014,02,12,02,07,990.52
2014,02,12,02,08,990.52
2014,02,12,02,09,990.52
2014,02,12,02,10,990.52
2014,02,12,02,11,990.52
2014,02,12,02,12,990.52
2014,02,12,02,13,990.52
2014,02,12,02,14,990.56
2014,02,12,02,15,990.72
2014,02,12,02,16,990.72
2014,02,12,02,17,990.72
2014,02,12,02,18,990.72
2014,02,12,02,19,990.72
2014,02,12,02,20,990.72
2014,02,12,02,21,990.72
2014,02,12,02,22,990.72
2014,02,12,02,23,990.72
2014,02,12,02,24,990.72
2014,02,12,02,25,990.72
2014,02,12,02,26,990.72
2014,02,12,02,27,990.72
2014,02,12,02,28,990.72
2014,02,12,02,29,990.83
2014,02,12,02,30,991.26
2014,02,12,02,31,991.26
2014,02,12,02,32,991.26
2014,02,12,02,33,991.26
2014,02,12,02,34,991.26
2014,02,12,02,35,991.26
2014,02,12,02,36,991.26
2014,02,12,02,37,991.26
2014,02,12,02,38,991.26
2014,02,12,02,39,991.26
2014,02,12,02,40,991.26
2014,02,12,02,41,991.26
2014,02,12,02,42,991.26
2014,02,12,02,43,991.26
2014,02,12,02,44,991.17
2014,02,12,02,45,990.69
2014,02,12,02,46,990.69
2014,02,12,02,47,990.69
2014,02,12,02,48,990.69
2014,02,12,02,49,990.69
2014,02,12,02,50,990.69
2014,02,12,02,51,990.69
2014,02,12,02,52,990.69
2014,02,12,02,53,990.69
2014,02,12,02,54,990.69
2014,02,12,02,55,990.69
2014,02,12,02,56,990.69
2014,02,12,02,57,990.69
2014,02,12,02,58,990.69
2014,02,12,02,59,990.62
2014,02,12,03,00,990.21
2014,02,12,03,01,990.21
2014,02,12,03,02,990.21
2014,02,12,03,03,990.21
2014,02,12,03,04,990.21
2014,02,12,03,05,990.21
2014,02,12,03,06,990.21
2014,02,12,03,07,990.21
2014,02,12,03,08,990.21
2014,02,12,03,09,990.21
2014,02,12,03,10,990.21
2014,02,12,03,11,990.21
2014,02,12,03,12,990.21
2014,02,12,03,13,990.21
2014,02,12,03,14,990.21
2014,02,12,03,15,990.65
2014,02,12,03,16,990.76
2014,02,12,03,17,990.76
2014,02,12,03,18,990.76
2014,02,12,03,19,990.76
2014,02,12,03,20,990.76
2014,02,12,03,21,990.76
2014,02,12,03,22,990.76
2014,02,12,03,23,990.76
2014,02,12,03,24,990.76
2014,02,12,03,25,990.76
2014,02,12,03,26,990.76
2014,02,12,03,27,990.76
2014,02,12,03,28,990.76
2014,02,12,03,29,990.76
2014,02,12,03,30,991.02
2014,02,12,03,31,991.06
2014,02,12,03,32,991.06
2014,02,12,03,33,991.06
2014,02,12,03,34,991.06
2014,02,12,03,35,991.06
2014,02,12,03,36,991.06
2014,02,12,03,37,991.06
2014,02,12,03,38,991.06
2014,02,12,03,39,991.06
2014,02,12,03,40,991.06
2014,02,12,03,41,991.06
2014,02,12,03,42,991.06
2014,02,12,03,43,991.06
2014,02,12,03,44,991.06
2014,02,12,03,45,991.44
2014,02,12,03,46,991.53
2014,02,12,03,47,991.53
2014,02,12,03,48,991.53
2014,02,12,03,49,991.53
2014,02,12,03,50,991.53
2014,02,12,03,51,991.53
2014,02,12,03,52,991.53
2014,02,12,03,53,991.53
2014,02,12,03,54,991.53
2014,02,12,03,55,991.53
2014,02,12,03,56,991.53
2014,02,12,03,57,991.53
2014,02,12,03,58,991.53
2014,02,12,03,59,991.53
2014,02,12,04,00,992.13
2014,02,12,04,01,992.28
2014,02,12,04,02,992.28
2014,02,12,04,03,992.28
2014,02,12,04,04,992.28
2014,02,12,04,05,992.28
2014,02,12,04,06,992.28
2014,02,12,04,07,992.28
2014,02,12,04,08,992.28
2014,02,12,04,09,992.28
2014,02,12,04,10,992.28
2014,02,12,04,11,992.28
2014,02,12,04,12,992.28
2014,02,12,04,13,992.28
2014,02,12,04,14,992.28
2014,02,12,04,15,992.79
2014,02,12,04,16,992.82
2014,02,12,04,17,992.82
2014,02,12,04,18,992.82
2014,02,12,04,19,992.82
2014,02,12,04,20,992.82
2014,02,12,04,21,992.82
2014,02,12,04,22,992.82
2014,02,12,04,23,992.82
2014,02,12,04,24,992.82
2014,02,12,04,25,992.82
2014,02,12,04,26,992.82
2014,02,12,04,27,992.82
2014,02,12,04,28,992.82
2014,02,12,04,29,992.82
2014,02,12,04,30,993.44
2014,02,12,04,31,993.47
2014,02,12,04,32,993.47
2014,02,12,04,33,993.47
2014,02,12,04,34,993.47
2014,02,12,04,35,993.47
2014,02,12,04,36,993.47
2014,02,12,04,37,993.47
2014,02,12,04,38,993.47
2014,02,12,04,39,993.47
2014,02,12,04,40,993.47
2014,02,12,04,41,993.47
2014,02,12,04,42,993.47
2014,02,12,04,43,993.47
2014,02,12,04,44,993.47
2014,02,12,04,45,994.20
2014,02,12,04,46,994.24
2014,02,12,04,47,994.24
2014,02,12,04,48,994.24
2014,02,12,04,49,994.24
2014,02,12,04,50,994.24
2014,02,12,04,51,994.24
2014,02,12,04,52,994.24
2014,02,12,04,53,994.24
2014,02,12,04,54,994.24
2014,02,12,04,55,994.24
2014,02,12,04,56,994.24
2014,02,12,04,57,994.24
2014,02,12,04,58,994.24
2014,02,12,04,59,994.24
2014,02,12,05,00,994.96
2014,02,12,05,01,994.96
2014,02,12,05,02,994.96
2014,02,12,05,03,994.96
2014,02,12,05,04,994.96
2014,02,12,05,05,994.96
2014,02,12,05,06,994.96
2014,02,12,05,07,994.96
2014,02,12,05,08,994.96
2014,02,12,05,09,994.96
2014,02,12,05,10,994.96
2014,02,12,05,11,994.96
2014,02,12,05,12,994.96
2014,02,12,05,13,994.96
2014,02,12,05,14,994.96
2014,02,12,05,15,995.77
2014,02,12,05,16,995.77
2014,02,12,05,17,995.77
2014,02,12,05,18,995.77
2014,02,12,05,19,995.77
2014,02,12,05,20,995.77
2014,02,12,05,21,995.77
2014,02,12,05,22,995.77
2014,02,12,05,23,995.77
2014,02,12,05,24,995.77
2014,02,12,05,25,995.77
2014,02,12,05,26,995.77
2014,02,12,05,27,995.77
2014,02,12,05,28,995.77
2014,02,12,05,29,995.77
2014,02,12,05,30,996.51
2014,02,12,05,31,996.51
2014,02,12,05,32,996.51
2014,02,12,05,33,996.51
2014,02,12,05,34,996.51
2014,02,12,05,35,996.51
2014,02,12,05,36,996.51
2014,02,12,05,37,996.51
2014,02,12,05,38,996.51
2014,02,12,05,39,996.51
2014,02,12,05,40,996.51
2014,02,12,05,41,996.51
2014,02,12,05,42,996.51
2014,02,12,05,43,996.51
2014,02,12,05,44,996.51
2014,02,12,05,45,997.16
2014,02,12,05,46,997.16
2014,02,12,05,47,997.16
2014,02,12,05,48,997.16
2014,02,12,05,49,997.16
2014,02,12,05,50,997.16
2014,02,12,05,51,997.16
2014,02,12,05,52,997.16
2014,02,12,05,53,997.16
2014,02,12,05,54,997.16
2014,02,12,05,55,997.16
2014,02,12,05,56,997.16
2014,02,12,05,57,997.16
2014,02,12,05,58,997.16
2014,02,12,05,59,997.16
2014,02,12,06,00,997.83
2014,02,12,06,01,997.83
2014,02,12,06,02,997.83
2014,02,12,06,03,997.83
2014,02,12,06,04,997.83
2014,02,12,06,05,997.83
2014,02,12,06,06,997.83
2014,02,12,06,07,997.83
2014,02,12,06,08,997.83
2014,02,12,06,09,997.83
2014,02,12,06,10,997.83
2014,02,12,06,11,997.83
2014,02,12,06,12,997.83
2014,02,12,06,13,997.83
2014,02,12,06,14,997.88
2014,02,12,06,15,998.82
2014,02,12,06,16,998.82
2014,02,12,06,17,998.82
2014,02,12,06,18,998.82
2014,02,12,06,19,998.82
2014,02,12,06,20,998.82
2014,02,12,06,21,998.82
2014,02,12,06,22,998.82
2014,02,12,06,23,998.82
2014,02,12,06,24,998.82
2014,02,12,06,25,998.82
2014,02,12,06,26,998.82
2014,02,12,06,27,998.82
2014,02,12,06,28,998.82
2014,02,12,06,29,998.83
2014,02,12,06,30,999.09
2014,02,12,06,31,999.09
2014,02,12,06,32,999.09
2014,02,12,06,33,999.09
2014,02,12,06,34,999.09
2014,02,12,06,35,999.09
2014,02,12,06,36,999.09
2014,02,12,06,37,999.09
2014,02,12,06,38,999.09
2014,02,12,06,39,999.09
2014,02,12,06,40,999.09
2014,02,12,06,41,999.09
2014,02,12,06,42,999.09
2014,02,12,06,43,999.09
2014,02,12,06,44,999.12
2014,02,12,06,45,999.66
2014,02,12,06,46,999.66
2014,02,12,06,47,999.66
2014,02,12,06,48,999.66
2014,02,12,06,49,999.66
2014,02,12,06,50,999.66
2014,02,12,06,51,999.66
2014,02,12,06,52,999.66
2014,02,12,06,53,999.66
2014,02,12,06,54,999.66
2014,02,12,06,55,999.66
2014,02,12,06,56,999.66
2014,02,12,06,57,999.66
2014,02,12,06,58,999.66
2014,02,12,06,59,999.68
2014,02,12,07,00,1000.07
2014,02,12,07,01,1000.07
2014,02,12,07,02,1000.07
2014,02,12,07,03,1000.07
2014,02,12,07,04,1000.07
2014,02,12,07,05,1000.07
2014,02,12,07,06,1000.07
2014,02,12,07,07,1000.07
2014,02,12,07,08,1000.07
2014,02,12,07,09,1000.07
2014,02,12,07,10,1000.07
2014,02,12,07,11,1000.07
2014,02,12,07,12,1000.07
2014,02,12,07,13,1000.07
2014,02,12,07,14,1000.09
2014,02,12,07,15,1000.54
2014,02,12,07,16,1000.54
2014,02,12,07,17,1000.54
2014,02,12,07,18,1000.54
2014,02,12,07,19,1000.54
2014,02,12,07,20,1000.54
2014,02,12,07,21,1000.54
2014,02,12,07,22,1000.54
2014,02,12,07,23,1000.54
2014,02,12,07,24,1000.54
2014,02,12,07,25,1000.54
2014,02,12,07,26,1000.54
2014,02,12,07,27,1000.54
2014,02,12,07,28,1000.54
2014,02,12,07,29,1000.54
2014,02,12,07,30,1001.22
2014,02,12,07,31,1001.22
2014,02,12,07,32,1001.22
2014,02,12,07,33,1001.22
2014,02,12,07,34,1001.22
2014,02,12,07,35,1001.22
2014,02,12,07,36,1001.22
2014,02,12,07,37,1001.22
2014,02,12,07,38,1001.22
2014,02,12,07,39,1001.22
2014,02,12,07,40,1001.22
2014,02,12,07,41,1001.22
2014,02,12,07,42,1001.22
2014,02,12,07,43,1001.22
2014,02,12,07,44,1001.23
2014,02,12,07,45,1001.36
2014,02,12,07,46,1001.36
2014,02,12,07,47,1001.36
2014,02,12,07,48,1001.36
2014,02,12,07,49,1001.36
2014,02,12,07,50,1001.36
2014,02,12,07,51,1001.36
2014,02,12,07,52,1001.36
2014,02,12,07,53,1001.36
2014,02,12,07,54,1001.36
2014,02,12,07,55,1001.36
2014,02,12,07,56,1001.36
2014,02,12,07,57,1001.36
2014,02,12,07,58,1001.36
2014,02,12,07,59,1001.41
2014,02,12,08,00,1002.41
2014,02,12,08,01,1002.41
2014,02,12,08,02,1002.41
2014,02,12,08,03,1002.41
2014,02,12,08,04,1002.41
2014,02,12,08,05,1002.41
2014,02,12,08,06,1002.41
2014,02,12,08,07,1002.41
2014,02,12,08,08,1002.41
2014,02,12,08,09,1002.41
2014,02,12,08,10,1002.41
2014,02,12,08,11,1002.41
2014,02,12,08,12,1002.41
2014,02,12,08,13,1002.41
2014,02,12,08,14,1002.40
2014,02,12,08,15,1002.30
2014,02,12,08,16,1002.30
2014,02,12,08,17,1002.30
2014,02,12,08,18,1002.30
2014,02,12,08,19,1002.30
2014,02,12,08,20,1002.30
2014,02,12,08,21,1002.30
2014,02,12,08,22,1002.30
2014,02,12,08,23,1002.30
2014,02,12,08,24,1002.30
2014,02,12,08,25,1002.30
2014,02,12,08,26,1002.30
2014,02,12,08,27,1002.30
2014,02,12,08,28,1002.30
2014,02,12,08,29,1002.32
2014,02,12,08,30,1002.74
2014,02,12,08,31,1002.74
2014,02,12,08,32,1002.74
2014,02,12,08,33,1002.74
2014,02,12,08,34,1002.74
2014,02,12,08,35,1002.74
2014,02,12,08,36,1002.74
2014,02,12,08,37,1002.74
2014,02,12,08,38,1002.74
2014,02,12,08,39,1002.74
2014,02,12,08,40,1002.74
2014,02,12,08,41,1002.74
2014,02,12,08,42,1002.74
2014,02,12,08,43,1002.74
2014,02,12,08,44,1002.75
2014,02,12,08,45,1002.85
2014,02,12,08,46,1002.85
2014,02,12,08,47,1002.85
2014,02,12,08,48,1002.85
2014,02,12,08,49,1002.85
2014,02,12,08,50,1002.85
2014,02,12,08,51,1002.85
2014,02,12,08,52,1002.85
2014,02,12,08,53,1002.85
2014,02,12,08,54,1002.85
2014,02,12,08,55,1002.85
2014,02,12,08,56,1002.85
2014,02,12,08,57,1002.85
2014,02,12,08,58,1002.85
2014,02,12,08,59,1002.90
2014,02,12,09,00,1003.86
2014,02,12,09,01,1003.86
2014,02,12,09,02,1003.86
2014,02,12,09,03,1003.86
2014,02,12,09,04,1003.86
2014,02,12,09,05,1003.86
2014,02,12,09,06,1003.86
2014,02,12,09,07,1003.86
2014,02,12,09,08,1003.86
2014,02,12,09,09,1003.86
2014,02,12,09,10,1003.86
2014,02,12,09,11,1003.86
2014,02,12,09,12,1003.86
2014,02,12,09,13,1003.86
2014,02,12,09,14,1003.90
2014,02,12,09,15,1004.57
2014,02,12,09,16,1004.57
2014,02,12,09,17,1004.57
2014,02,12,09,18,1004.57
2014,02,12,09,19,1004.57
2014,02,12,09,20,1004.57
2014,02,12,09,21,1004.57
2014,02,12,09,22,1004.57
2014,02,12,09,23,1004.57
2014,02,12,09,24,1004.57
2014,02,12,09,25,1004.57
2014,02,12,09,26,1004.57
2014,02,12,09,27,1004.57
2014,02,12,09,28,1004.57
2014,02,12,09,29,1004.61
2014,02,12,09,30,1004.95
2014,02,12,09,31,1004.95
2014,02,12,09,32,1004.95
2014,02,12,09,33,1004.95
2014,02,12,09,34,1004.95
2014,02,12,09,35,1004.95
2014,02,12,09,36,1004.95
2014,02,12,09,37,1004.95
2014,02,12,09,38,1004.95
2014,02,12,09,39,1004.95
2014,02,12,09,40,1004.95
2014,02,12,09,41,1004.95
2014,02,12,09,42,1004.95
2014,02,12,09,43,1004.95
2014,02,12,09,44,1004.98
2014,02,12,09,45,1005.49
2014,02,12,09,46,1005.49
2014,02,12,09,47,1005.49
2014,02,12,09,48,1005.49
2014,02,12,09,49,1005.49
2014,02,12,09,50,1005.49
2014,02,12,09,51,1005.49
2014,02,12,09,52,1005.49
2014,02,12,09,53,1005.49
2014,02,12,09,54,1005.49
2014,02,12,09,55,1005.49
2014,02,12,09,56,1005.49
2014,02,12,09,57,1005.49
2014,02,12,09,58,1005.49
2014,02,12,09,59,1005.53
2014,02,12,10,00,1006.20
2014,02,12,10,01,1006.20
2014,02,12,10,02,1006.20
2014,02,12,10,03,1006.20
2014,02,12,10,04,1006.20
2014,02,12,10,05,1006.20
2014,02,12,10,06,1006.20
2014,02,12,10,07,1006.20
2014,02,12,10,08,1006.20
2014,02,12,10,09,1006.20
2014,02,12,10,10,1006.20
2014,02,12,10,11,1006.20
2014,02,12,10,12,1006.20
2014,02,12,10,13,1006.20
2014,02,12,10,14,1006.24
2014,02,12,10,15,1006.57
2014,02,12,10,16,1006.57
2014,02,12,10,17,1006.57
2014,02,12,10,18,1006.57
2014,02,12,10,19,1006.57
2014,02,12,10,20,1006.57
2014,02,12,10,21,1006.57
2014,02,12,10,22,1006.57
2014,02,12,10,23,1006.57
2014,02,12,10,24,1006.57
2014,02,12,10,25,1006.57
2014,02,12,10,26,1006.57
2014,02,12,10,27,1006.57
2014,02,12,10,28,1006.57
2014,02,12,10,29,1006.59
2014,02,12,10,30,1007.04
2014,02,12,10,31,1007.04
2014,02,12,10,32,1007.04
2014,02,12,10,33,1007.04
2014,02,12,10,34,1007.04
2014,02,12,10,35,1007.04
2014,02,12,10,36,1007.04
2014,02,12,10,37,1007.04
2014,02,12,10,38,1007.04
2014,02,12,10,39,1007.04
2014,02,12,10,40,1007.04
2014,02,12,10,41,1007.04
2014,02,12,10,42,1007.04
2014,02,12,10,43,1007.04
2014,02,12,10,44,1007.08
2014,02,12,10,45,1007.42
2014,02,12,10,46,1007.42
2014,02,12,10,47,1007.42
2014,02,12,10,48,1007.42
2014,02,12,10,49,1007.42
2014,02,12,10,50,1007.42
2014,02,12,10,51,1007.42
2014,02,12,10,52,1007.42
2014,02,12,10,53,1007.42
2014,02,12,10,54,1007.42
2014,02,12,10,55,1007.42
2014,02,12,10,56,1007.42
2014,02,12,10,57,1007.42
2014,02,12,10,58,1007.42
2014,02,12,10,59,1007.43
2014,02,12,11,00,1007.55
2014,02,12,11,01,1007.55
2014,02,12,11,02,1007.55
2014,02,12,11,03,1007.55
2014,02,12,11,04,1007.55
2014,02,12,11,05,1007.55
2014,02,12,11,06,1007.55
2014,02,12,11,07,1007.55
2014,02,12,11,08,1007.55
2014,02,12,11,09,1007.55
2014,02,12,11,10,1007.55
2014,02,12,11,11,1007.55
2014,02,12,11,12,1007.55
2014,02,12,11,13,1007.55
2014,02,12,11,14,1007.58
2014,02,12,11,15,1008.23
2014,02,12,11,16,1008.23
2014,02,12,11,17,1008.23
2014,02,12,11,18,1008.23
2014,02,12,11,19,1008.23
2014,02,12,11,20,1008.23
2014,02,12,11,21,1008.23
2014,02,12,11,22,1008.23
2014,02,12,11,23,1008.23
2014,02,12,11,24,1008.23
2014,02,12,11,25,1008.23
2014,02,12,11,26,1008.23
2014,02,12,11,27,1008.23
2014,02,12,11,28,1008.23
2014,02,12,11,29,1008.26
2014,02,12,11,30,1008.57
2014,02,12,11,31,1008.57
2014,02,12,11,32,1008.57
2014,02,12,11,33,1008.57
2014,02,12,11,34,1008.57
2014,02,12,11,35,1008.57
2014,02,12,11,36,1008.57
2014,02,12,11,37,1008.57
2014,02,12,11,38,1008.57
2014,02,12,11,39,1008.57
2014,02,12,11,40,1008.57
2014,02,12,11,41,1008.57
2014,02,12,11,42,1008.57
2014,02,12,11,43,1008.57
2014,02,12,11,44,1008.62
2014,02,12,11,45,1009.08
2014,02,12,11,46,1009.08
2014,02,12,11,47,1009.08
2014,02,12,11,48,1009.08
2014,02,12,11,49,1009.08
2014,02,12,11,50,1009.08
2014,02,12,11,51,1009.08
2014,02,12,11,52,1009.08
2014,02,12,11,53,1009.08
2014,02,12,11,54,1009.08
2014,02,12,11,55,1009.08
2014,02,12,11,56,1009.08
2014,02,12,11,57,1009.08
2014,02,12,11,58,1009.08
2014,02,12,11,59,1009.11
2014,02,12,12,00,1009.38
2014,02,12,12,01,1009.38
2014,02,12,12,02,1009.38
2014,02,12,12,03,1009.38
2014,02,12,12,04,1009.38
2014,02,12,12,05,1009.38
2014,02,12,12,06,1009.38
2014,02,12,12,07,1009.38
2014,02,12,12,08,1009.38
2014,02,12,12,09,1009.38
2014,02,12,12,10,1009.38
2014,02,12,12,11,1009.38
2014,02,12,12,12,1009.38
2014,02,12,12,13,1009.38
2014,02,12,12,14,1009.38
2014,02,12,12,15,1009.35
2014,02,12,12,16,1009.35
2014,02,12,12,17,1009.35
2014,02,12,12,18,1009.35
2014,02,12,12,19,1009.35
2014,02,12,12,20,1009.35
2014,02,12,12,21,1009.35
2014,02,12,12,22,1009.35
2014,02,12,12,23,1009.35
2014,02,12,12,24,1009.35
2014,02,12,12,25,1009.35
2014,02,12,12,26,1009.35
2014,02,12,12,27,1009.35
2014,02,12,12,28,1009.35
2014,02,12,12,29,1009.34
2014,02,12,12,30,1009.25
2014,02,12,12,31,1009.25
2014,02,12,12,32,1009.25
2014,02,12,12,33,1009.25
2014,02,12,12,34,1009.25
2014,02,12,12,35,1009.25
2014,02,12,12,36,1009.25
2014,02,12,12,37,1009.25
2014,02,12,12,38,1009.25
2014,02,12,12,39,1009.25
2014,02,12,12,40,1009.25
2014,02,12,12,41,1009.25
2014,02,12,12,42,1009.25
2014,02,12,12,43,1009.25
2014,02,12,12,44,1009.25
2014,02,12,12,45,1009.25
2014,02,12,12,46,1009.25
2014,02,12,12,47,1009.25
2014,02,12,12,48,1009.25
2014,02,12,12,49,1009.25
2014,02,12,12,50,1009.25
2014,02,12,12,51,1009.25
2014,02,12,12,52,1009.25
2014,02,12,12,53,1009.25
2014,02,12,12,54,1009.25
2014,02,12,12,55,1009.25
2014,02,12,12,56,1009.25
2014,02,12,12,57,1009.25
2014,02,12,12,58,1009.25
2014,02,12,12,59,1009.23
2014,02,12,13,00,1009.08
2014,02,12,13,01,1009.08
2014,02,12,13,02,1009.08
2014,02,12,13,03,1009.08
2014,02,12,13,04,1009.08
2014,02,12,13,05,1009.08
2014,02,12,13,06,1009.08
2014,02,12,13,07,1009.08
2014,02,12,13,08,1009.08
2014,02,12,13,09,1009.08
2014,02,12,13,10,1009.08
2014,02,12,13,11,1009.08
2014,02,12,13,12,1009.08
2014,02,12,13,13,1009.08
2014,02,12,13,14,1009.08
2014,02,12,13,15,1009.11
2014,02,12,13,16,1009.11
2014,02,12,13,17,1009.11
2014,02,12,13,18,1009.11
2014,02,12,13,19,1009.11
2014,02,12,13,20,1009.11
2014,02,12,13,21,1009.11
2014,02,12,13,22,1009.11
2014,02,12,13,23,1009.11
2014,02,12,13,24,1009.11
2014,02,12,13,25,1009.11
2014,02,12,13,26,1009.11
2014,02,12,13,27,1009.11
2014,02,12,13,28,1009.11
2014,02,12,13,29,1009.07
2014,02,12,13,30,1008.81
2014,02,12,13,31,1008.81
2014,02,12,13,32,1008.81
2014,02,12,13,33,1008.81
2014,02,12,13,34,1008.81
2014,02,12,13,35,1008.81
2014,02,12,13,36,1008.81
2014,02,12,13,37,1008.81
2014,02,12,13,38,1008.81
2014,02,12,13,39,1008.81
2014,02,12,13,40,1008.81
2014,02,12,13,41,1008.81
2014,02,12,13,42,1008.81
2014,02,12,13,43,1008.81
2014,02,12,13,44,1008.81
2014,02,12,13,45,1008.81
2014,02,12,13,46,1008.81
2014,02,12,13,47,1008.81
2014,02,12,13,48,1008.81
2014,02,12,13,49,1008.81
2014,02,12,13,50,1008.81
2014,02,12,13,51,1008.81
2014,02,12,13,52,1008.81
2014,02,12,13,53,1008.81
2014,02,12,13,54,1008.81
2014,02,12,13,55,1008.81
2014,02,12,13,56,1008.81
2014,02,12,13,57,1008.81
2014,02,12,13,58,1008.81
2014,02,12,13,59,1008.79
2014,02,12,14,00,1008.60
2014,02,12,14,01,1008.60
2014,02,12,14,02,1008.60
2014,02,12,14,03,1008.60
2014,02,12,14,04,1008.60
2014,02,12,14,05,1008.60
2014,02,12,14,06,1008.60
2014,02,12,14,07,1008.60
2014,02,12,14,08,1008.60
2014,02,12,14,09,1008.60
2014,02,12,14,10,1008.60
2014,02,12,14,11,1008.60
2014,02,12,14,12,1008.60
2014,02,12,14,13,1008.60
2014,02,12,14,14,1008.60
2014,02,12,14,15,1008.57
2014,02,12,14,16,1008.57
2014,02,12,14,17,1008.57
2014,02,12,14,18,1008.57
2014,02,12,14,19,1008.57
2014,02,12,14,20,1008.57
2014,02,12,14,21,1008.57
2014,02,12,14,22,1008.57
2014,02,12,14,23,1008.57
2014,02,12,14,24,1008.57
2014,02,12,14,25,1008.57
2014,02,12,14,26,1008.57
2014,02,12,14,27,1008.57
2014,02,12,14,28,1008.57
2014,02,12,14,29,1008.56
2014,02,12,14,30,1008.43
2014,02,12,14,31,1008.43
2014,02,12,14,32,1008.43
2014,02,12,14,33,1008.43
2014,02,12,14,34,1008.43
2014,02,12,14,35,1008.43
2014,02,12,14,36,1008.43
2014,02,12,14,37,1008.43
2014,02,12,14,38,1008.43
2014,02,12,14,39,1008.43
2014,02,12,14,40,1008.43
2014,02,12,14,41,1008.43
2014,02,12,14,42,1008.43
2014,02,12,14,43,1008.43
2014,02,12,14,44,1008.44
2014,02,12,14,45,1008.57
2014,02,12,14,46,1008.57
2014,02,12,14,47,1008.57
2014,02,12,14,48,1008.57
2014,02,12,14,49,1008.57
2014,02,12,14,50,1008.57
2014,02,12,14,51,1008.57
2014,02,12,14,52,1008.57
2014,02,12,14,53,1008.57
2014,02,12,14,54,1008.57
2014,02,12,14,55,1008.57
2014,02,12,14,56,1008.57
2014,02,12,14,57,1008.57
2014,02,12,14,58,1008.57
2014,02,12,14,59,1008.57
2014,02,12,15,00,1008.57
2014,02,12,15,01,1008.57
2014,02,12,15,02,1008.57
2014,02,12,15,03,1008.57
2014,02,12,15,04,1008.57
2014,02,12,15,05,1008.57
2014,02,12,15,06,1008.57
2014,02,12,15,07,1008.57
2014,02,12,15,08,1008.57
2014,02,12,15,09,1008.57
2014,02,12,15,10,1008.57
2014,02,12,15,11,1008.57
2014,02,12,15,12,1008.57
2014,02,12,15,13,1008.57
2014,02,12,15,14,1008.56
2014,02,12,15,15,1008.53
2014,02,12,15,16,1008.53
2014,02,12,15,17,1008.53
2014,02,12,15,18,1008.53
2014,02,12,15,19,1008.53
2014,02,12,15,20,1008.53
2014,02,12,15,21,1008.53
2014,02,12,15,22,1008.53
2014,02,12,15,23,1008.53
2014,02,12,15,24,1008.53
2014,02,12,15,25,1008.53
2014,02,12,15,26,1008.53
2014,02,12,15,27,1008.53
2014,02,12,15,28,1008.53
2014,02,12,15,29,1008.49
2014,02,12,15,30,1008.09
2014,02,12,15,31,1008.09
2014,02,12,15,32,1008.09
2014,02,12,15,33,1008.09
2014,02,12,15,34,1008.09
2014,02,12,15,35,1008.09
2014,02,12,15,36,1008.09
2014,02,12,15,37,1008.09
2014,02,12,15,38,1008.09
2014,02,12,15,39,1008.09
2014,02,12,15,40,1008.09
2014,02,12,15,41,1008.09
2014,02,12,15,42,1008.09
2014,02,12,15,43,1008.09
2014,02,12,15,44,1008.13
2014,02,12,15,45,1008.37
2014,02,12,15,46,1008.37
2014,02,12,15,47,1008.37
2014,02,12,15,48,1008.37
2014,02,12,15,49,1008.37
2014,02,12,15,50,1008.37
2014,02,12,15,51,1008.37
2014,02,12,15,52,1008.37
2014,02,12,15,53,1008.37
2014,02,12,15,54,1008.37
2014,02,12,15,55,1008.37
2014,02,12,15,56,1008.37
2014,02,12,15,57,1008.37
2014,02,12,15,58,1008.37
2014,02,12,15,59,1008.35
2014,02,12,16,00,1008.16
2014,02,12,16,01,1008.16
2014,02,12,16,02,1008.16
2014,02,12,16,03,1008.16
2014,02,12,16,04,1008.16
2014,02,12,16,05,1008.16
2014,02,12,16,06,1008.16
2014,02,12,16,07,1008.16
2014,02,12,16,08,1008.16
2014,02,12,16,09,1008.16
2014,02,12,16,10,1008.16
2014,02,12,16,11,1008.16
2014,02,12,16,12,1008.16
2014,02,12,16,13,1008.16